Terminal Aerodrome Forecast
Issued by NWS

Home | Current Version | Previous Version | Text Only | Print | Product List | Glossary On
Versions: 1 2 3 4 5 6 7 8 9 10 11 12 13 14 15 16 17 18 19 20 21 22 23 24 25 26 27 28 29 30 31 32 33 34 35 36 37 38 39 40 41 42 43 44 45 46 47 48 49 50
000
FTUS42 KMFL 231514 AAB
TAFTMB
TAF AMD
KTMB 231514Z 2315/2412 VRB04KT P6SM VCTS SCT025CB BKN050
      TEMPO 2315/2317 TSRA BKN025CB
     FM232000 12008KT P6SM SCT035 BKN150
     FM240100 VRB03KT P6SM FEW030=

USA.gov is the U.S. government's official web portal to all federal, state and local government web resources and services.